Year,Month,Day,Hour,Minute,Value (Times are PST for temperature in C)
2008,08,16,00,00,22.90
2008,08,16,00,01,22.90
2008,08,16,00,02,22.90
2008,08,16,00,03,22.90
2008,08,16,00,04,22.90
2008,08,16,00,05,22.90
2008,08,16,00,06,22.90
2008,08,16,00,07,22.90
2008,08,16,00,08,22.90
2008,08,16,00,09,22.90
2008,08,16,00,10,22.90
2008,08,16,00,11,22.80
2008,08,16,00,12,22.80
2008,08,16,00,13,22.80
2008,08,16,00,14,22.70
2008,08,16,00,15,22.70
2008,08,16,00,16,22.70
2008,08,16,00,17,22.70
2008,08,16,00,18,22.70
2008,08,16,00,19,22.70
2008,08,16,00,20,22.80
2008,08,16,00,21,22.80
2008,08,16,00,22,22.80
2008,08,16,00,23,22.90
2008,08,16,00,24,22.90
2008,08,16,00,25,22.90
2008,08,16,00,26,22.90
2008,08,16,00,27,22.90
2008,08,16,00,28,23.00
2008,08,16,00,29,23.10
2008,08,16,00,30,23.10
2008,08,16,00,31,23.10
2008,08,16,00,32,23.00
2008,08,16,00,33,22.90
2008,08,16,00,34,22.90
2008,08,16,00,35,22.90
2008,08,16,00,36,22.80
2008,08,16,00,37,22.70
2008,08,16,00,38,22.70
2008,08,16,00,39,22.60
2008,08,16,00,40,22.50
2008,08,16,00,41,22.40
2008,08,16,00,42,22.30
2008,08,16,00,43,22.20
2008,08,16,00,44,22.00
2008,08,16,00,45,21.90
2008,08,16,00,46,21.80
2008,08,16,00,47,21.70
2008,08,16,00,48,21.60
2008,08,16,00,49,21.60
2008,08,16,00,50,21.60
2008,08,16,00,51,21.60
2008,08,16,00,52,21.60
2008,08,16,00,53,21.50
2008,08,16,00,54,21.40
2008,08,16,00,55,21.30
2008,08,16,00,56,21.30
2008,08,16,00,57,21.30
2008,08,16,00,58,21.30
2008,08,16,00,59,21.20
2008,08,16,01,00,21.10
2008,08,16,01,01,21.10
2008,08,16,01,02,21.00
2008,08,16,01,03,21.00
2008,08,16,01,04,20.90
2008,08,16,01,05,20.90
2008,08,16,01,06,20.80
2008,08,16,01,07,20.80
2008,08,16,01,08,20.70
2008,08,16,01,09,20.70
2008,08,16,01,10,20.60
2008,08,16,01,11,20.60
2008,08,16,01,12,20.60
2008,08,16,01,13,20.50
2008,08,16,01,14,20.50
2008,08,16,01,15,20.50
2008,08,16,01,16,20.50
2008,08,16,01,17,20.40
2008,08,16,01,18,20.40
2008,08,16,01,19,20.40
2008,08,16,01,20,20.40
2008,08,16,01,21,20.30
2008,08,16,01,22,20.20
2008,08,16,01,23,20.20
2008,08,16,01,24,20.10
2008,08,16,01,25,20.00
2008,08,16,01,26,19.90
2008,08,16,01,27,19.90
2008,08,16,01,28,19.80
2008,08,16,01,29,19.70
2008,08,16,01,30,19.60
2008,08,16,01,31,19.60
2008,08,16,01,32,19.50
2008,08,16,01,33,19.50
2008,08,16,01,34,19.60
2008,08,16,01,35,19.60
2008,08,16,01,36,19.60
2008,08,16,01,37,19.60
2008,08,16,01,38,19.70
2008,08,16,01,39,19.70
2008,08,16,01,40,19.70
2008,08,16,01,41,19.70
2008,08,16,01,42,19.70
2008,08,16,01,43,19.70
2008,08,16,01,44,19.70
2008,08,16,01,45,19.70
2008,08,16,01,46,19.70
2008,08,16,01,47,19.60
2008,08,16,01,48,19.60
2008,08,16,01,49,19.50
2008,08,16,01,50,19.50
2008,08,16,01,51,19.50
2008,08,16,01,52,19.40
2008,08,16,01,53,19.40
2008,08,16,01,54,19.30
2008,08,16,01,55,19.20
2008,08,16,01,56,19.20
2008,08,16,01,57,19.10
2008,08,16,01,58,19.10
2008,08,16,01,59,19.10
2008,08,16,02,00,19.10
2008,08,16,02,01,19.10
2008,08,16,02,02,19.00
2008,08,16,02,03,18.90
2008,08,16,02,04,18.90
2008,08,16,02,05,18.90
2008,08,16,02,06,18.90
2008,08,16,02,07,18.90
2008,08,16,02,08,18.90
2008,08,16,02,09,18.90
2008,08,16,02,10,18.90
2008,08,16,02,11,18.90
2008,08,16,02,12,18.80
2008,08,16,02,13,18.70
2008,08,16,02,14,18.70
2008,08,16,02,15,18.70
2008,08,16,02,16,18.70
2008,08,16,02,17,18.80
2008,08,16,02,18,19.00
2008,08,16,02,19,19.10
2008,08,16,02,20,19.30
2008,08,16,02,21,19.40
2008,08,16,02,22,19.60
2008,08,16,02,23,19.70
2008,08,16,02,24,19.80
2008,08,16,02,25,19.90
2008,08,16,02,26,20.00
2008,08,16,02,27,20.10
2008,08,16,02,28,20.20
2008,08,16,02,29,20.20
2008,08,16,02,30,20.20
2008,08,16,02,31,20.30
2008,08,16,02,32,20.30
2008,08,16,02,33,20.30
2008,08,16,02,34,20.30
2008,08,16,02,35,20.30
2008,08,16,02,36,20.20
2008,08,16,02,37,20.20
2008,08,16,02,38,20.00
2008,08,16,02,39,19.90
2008,08,16,02,40,19.80
2008,08,16,02,41,19.70
2008,08,16,02,42,19.80
2008,08,16,02,43,19.90
2008,08,16,02,44,20.00
2008,08,16,02,45,20.10
2008,08,16,02,46,20.20
2008,08,16,02,47,20.20
2008,08,16,02,48,20.20
2008,08,16,02,49,20.20
2008,08,16,02,50,20.20
2008,08,16,02,51,20.20
2008,08,16,02,52,20.20
2008,08,16,02,53,20.20
2008,08,16,02,54,20.20
2008,08,16,02,55,20.20
2008,08,16,02,56,20.20
2008,08,16,02,57,20.30
2008,08,16,02,58,20.30
2008,08,16,02,59,20.40
2008,08,16,03,00,20.40
2008,08,16,03,01,20.50
2008,08,16,03,02,20.50
2008,08,16,03,03,20.50
2008,08,16,03,04,20.50
2008,08,16,03,05,20.50
2008,08,16,03,06,20.60
2008,08,16,03,07,20.60
2008,08,16,03,08,20.50
2008,08,16,03,09,20.50
2008,08,16,03,10,20.40
2008,08,16,03,11,20.40
2008,08,16,03,12,20.30
2008,08,16,03,13,20.30
2008,08,16,03,14,20.20
2008,08,16,03,15,20.20
2008,08,16,03,16,20.20
2008,08,16,03,17,20.20
2008,08,16,03,18,20.20
2008,08,16,03,19,20.10
2008,08,16,03,20,20.00
2008,08,16,03,21,19.90
2008,08,16,03,22,19.90
2008,08,16,03,23,20.00
2008,08,16,03,24,20.10
2008,08,16,03,25,20.10
2008,08,16,03,26,20.20
2008,08,16,03,27,20.20
2008,08,16,03,28,20.20
2008,08,16,03,29,20.30
2008,08,16,03,30,20.30
2008,08,16,03,31,20.30
2008,08,16,03,32,20.30
2008,08,16,03,33,20.30
2008,08,16,03,34,20.40
2008,08,16,03,35,20.40
2008,08,16,03,36,20.40
2008,08,16,03,37,20.40
2008,08,16,03,38,20.40
2008,08,16,03,39,20.40
2008,08,16,03,40,20.40
2008,08,16,03,41,20.40
2008,08,16,03,42,20.50
2008,08,16,03,43,20.50
2008,08,16,03,44,20.50
2008,08,16,03,45,20.50
2008,08,16,03,46,20.50
2008,08,16,03,47,20.40
2008,08,16,03,48,20.40
2008,08,16,03,49,20.40
2008,08,16,03,50,20.30
2008,08,16,03,51,20.30
2008,08,16,03,52,20.20
2008,08,16,03,53,20.20
2008,08,16,03,54,20.20
2008,08,16,03,55,20.20
2008,08,16,03,56,20.20
2008,08,16,03,57,20.20
2008,08,16,03,58,20.20
2008,08,16,03,59,20.20
2008,08,16,04,00,20.20
2008,08,16,04,01,20.20
2008,08,16,04,02,20.20
2008,08,16,04,03,20.10
2008,08,16,04,04,20.00
2008,08,16,04,05,19.90
2008,08,16,04,06,19.90
2008,08,16,04,07,19.90
2008,08,16,04,08,19.90
2008,08,16,04,09,19.90
2008,08,16,04,10,19.90
2008,08,16,04,11,19.90
2008,08,16,04,12,19.90
2008,08,16,04,13,19.90
2008,08,16,04,14,19.80
2008,08,16,04,15,19.70
2008,08,16,04,16,19.60
2008,08,16,04,17,19.60
2008,08,16,04,18,19.50
2008,08,16,04,19,19.40
2008,08,16,04,20,19.40
2008,08,16,04,21,19.30
2008,08,16,04,22,19.20
2008,08,16,04,23,19.10
2008,08,16,04,24,19.10
2008,08,16,04,25,19.00
2008,08,16,04,26,18.90
2008,08,16,04,27,18.90
2008,08,16,04,28,18.90
2008,08,16,04,29,18.80
2008,08,16,04,30,18.80
2008,08,16,04,31,18.70
2008,08,16,04,32,18.70
2008,08,16,04,33,18.60
2008,08,16,04,34,18.60
2008,08,16,04,35,18.50
2008,08,16,04,36,18.50
2008,08,16,04,37,18.50
2008,08,16,04,38,18.50
2008,08,16,04,39,18.50
2008,08,16,04,40,18.60
2008,08,16,04,41,18.60
2008,08,16,04,42,18.60
2008,08,16,04,43,18.70
2008,08,16,04,44,18.80
2008,08,16,04,45,18.80
2008,08,16,04,46,18.80
2008,08,16,04,47,18.80
2008,08,16,04,48,18.90
2008,08,16,04,49,18.80
2008,08,16,04,50,18.80
2008,08,16,04,51,18.80
2008,08,16,04,52,18.80
2008,08,16,04,53,18.80
2008,08,16,04,54,18.70
2008,08,16,04,55,18.70
2008,08,16,04,56,18.60
2008,08,16,04,57,18.60
2008,08,16,04,58,18.50
2008,08,16,04,59,18.50
2008,08,16,05,00,18.40
2008,08,16,05,01,18.40
2008,08,16,05,02,18.30
2008,08,16,05,03,18.30
2008,08,16,05,04,18.30
2008,08,16,05,05,18.30
2008,08,16,05,06,18.30
2008,08,16,05,07,18.30
2008,08,16,05,08,18.30
2008,08,16,05,09,18.30
2008,08,16,05,10,18.30
2008,08,16,05,11,18.30
2008,08,16,05,12,18.30
2008,08,16,05,13,18.30
2008,08,16,05,14,18.30
2008,08,16,05,15,18.30
2008,08,16,05,16,18.30
2008,08,16,05,17,18.30
2008,08,16,05,18,18.30
2008,08,16,05,19,18.30
2008,08,16,05,20,18.20
2008,08,16,05,21,18.20
2008,08,16,05,22,18.20
2008,08,16,05,23,18.20
2008,08,16,05,24,18.20
2008,08,16,05,25,18.20
2008,08,16,05,26,18.10
2008,08,16,05,27,18.10
2008,08,16,05,28,18.10
2008,08,16,05,29,18.10
2008,08,16,05,30,18.10
2008,08,16,05,31,18.20
2008,08,16,05,32,18.20
2008,08,16,05,33,18.20
2008,08,16,05,34,18.20
2008,08,16,05,35,18.10
2008,08,16,05,36,18.10
2008,08,16,05,37,18.00
2008,08,16,05,38,17.90
2008,08,16,05,39,17.90
2008,08,16,05,40,17.90
2008,08,16,05,41,17.90
2008,08,16,05,42,17.90
2008,08,16,05,43,17.90
2008,08,16,05,44,17.90
2008,08,16,05,45,17.80
2008,08,16,05,46,17.80
2008,08,16,05,47,17.80
2008,08,16,05,48,17.80
2008,08,16,05,49,17.80
2008,08,16,05,50,17.70
2008,08,16,05,51,17.70
2008,08,16,05,52,17.70
2008,08,16,05,53,17.70
2008,08,16,05,54,17.60
2008,08,16,05,55,17.60
2008,08,16,05,56,17.50
2008,08,16,05,57,17.50
2008,08,16,05,58,17.40
2008,08,16,05,59,17.40
2008,08,16,06,00,17.30
2008,08,16,06,01,17.30
2008,08,16,06,02,17.20
2008,08,16,06,03,17.20
2008,08,16,06,04,17.30
2008,08,16,06,05,17.30
2008,08,16,06,06,17.40
2008,08,16,06,07,17.50
2008,08,16,06,08,17.70
2008,08,16,06,09,17.70
2008,08,16,06,10,17.70
2008,08,16,06,11,17.70
2008,08,16,06,12,17.80
2008,08,16,06,13,17.80
2008,08,16,06,14,17.80
2008,08,16,06,15,17.80
2008,08,16,06,16,17.80
2008,08,16,06,17,17.90
2008,08,16,06,18,18.00
2008,08,16,06,19,18.20
2008,08,16,06,20,18.40
2008,08,16,06,21,18.50
2008,08,16,06,22,18.70
2008,08,16,06,23,18.80
2008,08,16,06,24,18.90
2008,08,16,06,25,19.00
2008,08,16,06,26,19.10
2008,08,16,06,27,19.10
2008,08,16,06,28,19.20
2008,08,16,06,29,19.20
2008,08,16,06,30,19.20
2008,08,16,06,31,19.20
2008,08,16,06,32,19.20
2008,08,16,06,33,19.10
2008,08,16,06,34,19.10
2008,08,16,06,35,19.10
2008,08,16,06,36,18.90
2008,08,16,06,37,18.90
2008,08,16,06,38,18.80
2008,08,16,06,39,18.70
2008,08,16,06,40,18.60
2008,08,16,06,41,18.50
2008,08,16,06,42,18.40
2008,08,16,06,43,18.30
2008,08,16,06,44,18.10
2008,08,16,06,45,18.00
2008,08,16,06,46,17.90
2008,08,16,06,47,17.80
2008,08,16,06,48,17.80
2008,08,16,06,49,17.80
2008,08,16,06,50,17.80
2008,08,16,06,51,17.90
2008,08,16,06,52,17.90
2008,08,16,06,53,17.90
2008,08,16,06,54,18.00
2008,08,16,06,55,18.10
2008,08,16,06,56,18.30
2008,08,16,06,57,18.50
2008,08,16,06,58,18.60
2008,08,16,06,59,18.70
2008,08,16,07,00,18.80
2008,08,16,07,01,18.90
2008,08,16,07,02,19.10
2008,08,16,07,03,19.20
2008,08,16,07,04,19.30
2008,08,16,07,05,19.40
2008,08,16,07,06,19.50
2008,08,16,07,07,19.60
2008,08,16,07,08,19.70
2008,08,16,07,09,19.80
2008,08,16,07,10,19.90
2008,08,16,07,11,19.90
2008,08,16,07,12,20.00
2008,08,16,07,13,20.10
2008,08,16,07,14,20.10
2008,08,16,07,15,20.20
2008,08,16,07,16,20.20
2008,08,16,07,17,20.20
2008,08,16,07,18,20.20
2008,08,16,07,19,20.20
2008,08,16,07,20,20.20
2008,08,16,07,21,20.20
2008,08,16,07,22,20.20
2008,08,16,07,23,20.20
2008,08,16,07,24,20.20
2008,08,16,07,25,20.30
2008,08,16,07,26,20.30
2008,08,16,07,27,20.30
2008,08,16,07,28,20.30
2008,08,16,07,29,20.30
2008,08,16,07,30,20.30
2008,08,16,07,31,20.40
2008,08,16,07,32,20.40
2008,08,16,07,33,20.40
2008,08,16,07,34,20.40
2008,08,16,07,35,20.40
2008,08,16,07,36,20.40
2008,08,16,07,37,20.40
2008,08,16,07,38,20.40
2008,08,16,07,39,20.50
2008,08,16,07,40,20.50
2008,08,16,07,41,20.50
2008,08,16,07,42,20.50
2008,08,16,07,43,20.60
2008,08,16,07,44,20.60
2008,08,16,07,45,20.60
2008,08,16,07,46,20.60
2008,08,16,07,47,20.70
2008,08,16,07,48,20.70
2008,08,16,07,49,20.70
2008,08,16,07,50,20.70
2008,08,16,07,51,20.80
2008,08,16,07,52,20.80
2008,08,16,07,53,20.80
2008,08,16,07,54,20.80
2008,08,16,07,55,20.80
2008,08,16,07,56,20.90
2008,08,16,07,57,20.90
2008,08,16,07,58,20.90
2008,08,16,07,59,20.90
2008,08,16,08,00,20.90
2008,08,16,08,01,20.90
2008,08,16,08,02,20.90
2008,08,16,08,03,20.90
2008,08,16,08,04,21.00
2008,08,16,08,05,21.00
2008,08,16,08,06,21.00
2008,08,16,08,07,21.00
2008,08,16,08,08,21.10
2008,08,16,08,09,21.10
2008,08,16,08,10,21.10
2008,08,16,08,11,21.20
2008,08,16,08,12,21.20
2008,08,16,08,13,21.20
2008,08,16,08,14,21.30
2008,08,16,08,15,21.30
2008,08,16,08,16,21.30
2008,08,16,08,17,21.30
2008,08,16,08,18,21.30
2008,08,16,08,19,21.30
2008,08,16,08,20,21.30
2008,08,16,08,21,21.30
2008,08,16,08,22,21.30
2008,08,16,08,23,21.40
2008,08,16,08,24,21.40
2008,08,16,08,25,21.40
2008,08,16,08,26,21.40
2008,08,16,08,27,21.60
2008,08,16,08,28,21.60
2008,08,16,08,29,21.60
2008,08,16,08,30,21.60
2008,08,16,08,31,21.60
2008,08,16,08,32,21.60
2008,08,16,08,33,21.60
2008,08,16,08,34,21.60
2008,08,16,08,35,21.60
2008,08,16,08,36,21.60
2008,08,16,08,37,21.60
2008,08,16,08,38,21.60
2008,08,16,08,39,21.60
2008,08,16,08,40,21.60
2008,08,16,08,41,21.60
2008,08,16,08,42,21.60
2008,08,16,08,43,21.60
2008,08,16,08,44,21.60
2008,08,16,08,45,21.50
2008,08,16,08,46,21.40
2008,08,16,08,47,21.50
2008,08,16,08,48,21.60
2008,08,16,08,49,21.60
2008,08,16,08,50,21.60
2008,08,16,08,51,21.60
2008,08,16,08,52,21.60
2008,08,16,08,53,21.60
2008,08,16,08,54,21.60
2008,08,16,08,55,21.60
2008,08,16,08,56,21.60
2008,08,16,08,57,21.60
2008,08,16,08,58,21.70
2008,08,16,08,59,21.70
2008,08,16,09,00,21.80
2008,08,16,09,01,21.80
2008,08,16,09,02,21.80
2008,08,16,09,03,21.90
2008,08,16,09,04,21.90
2008,08,16,09,05,21.90
2008,08,16,09,06,21.90
2008,08,16,09,07,21.90
2008,08,16,09,08,21.90
2008,08,16,09,09,21.90
2008,08,16,09,10,21.90
2008,08,16,09,11,22.00
2008,08,16,09,12,22.00
2008,08,16,09,13,22.00
2008,08,16,09,14,22.10
2008,08,16,09,15,22.10
2008,08,16,09,16,22.20
2008,08,16,09,17,22.20
2008,08,16,09,18,22.20
2008,08,16,09,19,22.30
2008,08,16,09,20,22.30
2008,08,16,09,21,22.30
2008,08,16,09,22,22.40
2008,08,16,09,23,22.40
2008,08,16,09,24,22.40
2008,08,16,09,25,22.50
2008,08,16,09,26,22.50
2008,08,16,09,27,22.50
2008,08,16,09,28,22.50
2008,08,16,09,29,22.50
2008,08,16,09,30,22.60
2008,08,16,09,31,22.60
2008,08,16,09,32,22.50
2008,08,16,09,33,22.50
2008,08,16,09,34,22.40
2008,08,16,09,35,22.40
2008,08,16,09,36,22.40
2008,08,16,09,37,22.40
2008,08,16,09,38,22.40
2008,08,16,09,39,22.40
2008,08,16,09,40,22.40
2008,08,16,09,41,22.40
2008,08,16,09,42,22.50
2008,08,16,09,43,22.50
2008,08,16,09,44,22.60
2008,08,16,09,45,22.60
2008,08,16,09,46,22.70
2008,08,16,09,47,22.70
2008,08,16,09,48,22.70
2008,08,16,09,49,22.70
2008,08,16,09,50,22.80
2008,08,16,09,51,22.80
2008,08,16,09,52,22.90
2008,08,16,09,53,22.90
2008,08,16,09,54,22.90
2008,08,16,09,55,22.90
2008,08,16,09,56,22.90
2008,08,16,09,57,22.90
2008,08,16,09,58,22.90
2008,08,16,09,59,22.90
2008,08,16,10,00,22.90
2008,08,16,10,01,22.90
2008,08,16,10,02,22.90
2008,08,16,10,03,22.90
2008,08,16,10,04,22.90
2008,08,16,10,05,22.90
2008,08,16,10,06,22.90
2008,08,16,10,07,23.00
2008,08,16,10,08,22.90
2008,08,16,10,09,22.90
2008,08,16,10,10,22.90
2008,08,16,10,11,22.90
2008,08,16,10,12,22.90
2008,08,16,10,13,22.80
2008,08,16,10,14,22.70
2008,08,16,10,15,22.70
2008,08,16,10,16,22.70
2008,08,16,10,17,22.60
2008,08,16,10,18,22.60
2008,08,16,10,19,22.70
2008,08,16,10,20,22.70
2008,08,16,10,21,22.70
2008,08,16,10,22,22.80
2008,08,16,10,23,22.80
2008,08,16,10,24,22.90
2008,08,16,10,25,22.90
2008,08,16,10,26,22.90
2008,08,16,10,27,22.90
2008,08,16,10,28,22.90
2008,08,16,10,29,22.90
2008,08,16,10,30,22.90
2008,08,16,10,31,22.90
2008,08,16,10,32,22.90
2008,08,16,10,33,22.90
2008,08,16,10,34,22.90
2008,08,16,10,35,22.90
2008,08,16,10,36,22.90
2008,08,16,10,37,22.90
2008,08,16,10,38,22.90
2008,08,16,10,39,23.00
2008,08,16,10,40,23.10
2008,08,16,10,41,23.10
2008,08,16,10,42,23.20
2008,08,16,10,43,23.20
2008,08,16,10,44,23.20
2008,08,16,10,45,23.30
2008,08,16,10,46,23.30
2008,08,16,10,47,23.30
2008,08,16,10,48,23.30
2008,08,16,10,49,23.30
2008,08,16,10,50,23.40
2008,08,16,10,51,23.40
2008,08,16,10,52,23.30
2008,08,16,10,53,23.30
2008,08,16,10,54,23.30
2008,08,16,10,55,23.30
2008,08,16,10,56,23.30
2008,08,16,10,57,23.30
2008,08,16,10,58,23.30
2008,08,16,10,59,23.30
2008,08,16,11,00,23.30
2008,08,16,11,01,23.40
2008,08,16,11,02,23.50
2008,08,16,11,03,23.60
2008,08,16,11,04,23.60
2008,08,16,11,05,23.60
2008,08,16,11,06,23.50
2008,08,16,11,07,23.40
2008,08,16,11,08,23.40
2008,08,16,11,09,23.50
2008,08,16,11,10,23.60
2008,08,16,11,11,23.60
2008,08,16,11,12,23.70
2008,08,16,11,13,23.70
2008,08,16,11,14,23.70
2008,08,16,11,15,23.90
2008,08,16,11,16,24.00
2008,08,16,11,17,24.10
2008,08,16,11,18,24.10
2008,08,16,11,19,24.10
2008,08,16,11,20,24.10
2008,08,16,11,21,24.10
2008,08,16,11,22,24.20
2008,08,16,11,23,24.20
2008,08,16,11,24,24.30
2008,08,16,11,25,24.40
2008,08,16,11,26,24.50
2008,08,16,11,27,24.60
2008,08,16,11,28,24.70
2008,08,16,11,29,24.70
2008,08,16,11,30,24.80
2008,08,16,11,31,24.80
2008,08,16,11,32,24.90
2008,08,16,11,33,24.90
2008,08,16,11,34,24.90
2008,08,16,11,35,24.90
2008,08,16,11,36,24.80
2008,08,16,11,37,24.70
2008,08,16,11,38,24.70
2008,08,16,11,39,24.60
2008,08,16,11,40,24.60
2008,08,16,11,41,24.70
2008,08,16,11,42,24.80
2008,08,16,11,43,24.90
2008,08,16,11,44,25.00
2008,08,16,11,45,25.00
2008,08,16,11,46,25.00
2008,08,16,11,47,25.10
2008,08,16,11,48,25.20
2008,08,16,11,49,25.20
2008,08,16,11,50,25.30
2008,08,16,11,51,25.40
2008,08,16,11,52,25.50
2008,08,16,11,53,25.50
2008,08,16,11,54,25.50
2008,08,16,11,55,25.50
2008,08,16,11,56,25.60
2008,08,16,11,57,25.60
2008,08,16,11,58,25.60
2008,08,16,11,59,25.50
2008,08,16,12,00,25.40
2008,08,16,12,01,25.40
2008,08,16,12,02,25.40
2008,08,16,12,03,25.40
2008,08,16,12,04,25.40
2008,08,16,12,05,25.50
2008,08,16,12,06,25.50
2008,08,16,12,07,25.60
2008,08,16,12,08,25.60
2008,08,16,12,09,25.60
2008,08,16,12,10,25.70
2008,08,16,12,11,25.70
2008,08,16,12,12,25.70
2008,08,16,12,13,25.70
2008,08,16,12,14,25.70
2008,08,16,12,15,25.70
2008,08,16,12,16,25.70
2008,08,16,12,17,25.70
2008,08,16,12,18,25.80
2008,08,16,12,19,25.80
2008,08,16,12,20,25.90
2008,08,16,12,21,26.00
2008,08,16,12,22,26.00
2008,08,16,12,23,26.10
2008,08,16,12,24,26.10
2008,08,16,12,25,26.10
2008,08,16,12,26,26.20
2008,08,16,12,27,26.30
2008,08,16,12,28,26.30
2008,08,16,12,29,26.40
2008,08,16,12,30,26.40
2008,08,16,12,31,26.60
2008,08,16,12,32,26.60
2008,08,16,12,33,26.50
2008,08,16,12,34,26.40
2008,08,16,12,35,26.30
2008,08,16,12,36,26.30
2008,08,16,12,37,26.30
2008,08,16,12,38,26.30
2008,08,16,12,39,26.30
2008,08,16,12,40,26.40
2008,08,16,12,41,26.40
2008,08,16,12,42,26.40
2008,08,16,12,43,26.40
2008,08,16,12,44,26.30
2008,08,16,12,45,26.20
2008,08,16,12,46,26.20
2008,08,16,12,47,26.10
2008,08,16,12,48,26.10
2008,08,16,12,49,26.10
2008,08,16,12,50,26.20
2008,08,16,12,51,26.20
2008,08,16,12,52,26.20
2008,08,16,12,53,26.30
2008,08,16,12,54,26.40
2008,08,16,12,55,26.50
2008,08,16,12,56,26.40
2008,08,16,12,57,26.60
2008,08,16,12,58,26.60
2008,08,16,12,59,26.60
2008,08,16,13,00,26.70
2008,08,16,13,01,26.70
2008,08,16,13,02,26.80
2008,08,16,13,03,26.80
2008,08,16,13,04,26.70
2008,08,16,13,05,26.80
2008,08,16,13,06,26.80
2008,08,16,13,07,26.80
2008,08,16,13,08,26.80
2008,08,16,13,09,26.80
2008,08,16,13,10,26.80
2008,08,16,13,11,26.70
2008,08,16,13,12,26.70
2008,08,16,13,13,26.70
2008,08,16,13,14,26.70
2008,08,16,13,15,26.60
2008,08,16,13,16,26.70
2008,08,16,13,17,26.70
2008,08,16,13,18,26.70
2008,08,16,13,19,26.70
2008,08,16,13,20,26.70
2008,08,16,13,21,26.70
2008,08,16,13,22,26.80
2008,08,16,13,23,27.00
2008,08,16,13,24,27.10
2008,08,16,13,25,27.20
2008,08,16,13,26,27.30
2008,08,16,13,27,27.30
2008,08,16,13,28,27.30
2008,08,16,13,29,27.40
2008,08,16,13,30,27.60
2008,08,16,13,31,27.60
2008,08,16,13,32,27.60
2008,08,16,13,33,27.70
2008,08,16,13,34,27.70
2008,08,16,13,35,27.70
2008,08,16,13,36,27.70
2008,08,16,13,37,27.70
2008,08,16,13,38,27.70
2008,08,16,13,39,27.70
2008,08,16,13,40,27.70
2008,08,16,13,41,27.80
2008,08,16,13,42,27.80
2008,08,16,13,43,27.80
2008,08,16,13,44,27.70
2008,08,16,13,45,27.70
2008,08,16,13,46,27.70
2008,08,16,13,47,27.70
2008,08,16,13,48,27.70
2008,08,16,13,49,27.80
2008,08,16,13,50,27.80
2008,08,16,13,51,27.90
2008,08,16,13,52,27.90
2008,08,16,13,53,27.90
2008,08,16,13,54,28.00
2008,08,16,13,55,28.00
2008,08,16,13,56,28.00
2008,08,16,13,57,28.00
2008,08,16,13,58,28.00
2008,08,16,13,59,28.00
2008,08,16,14,00,28.10
2008,08,16,14,01,28.00
2008,08,16,14,02,28.00
2008,08,16,14,03,27.90
2008,08,16,14,04,27.90
2008,08,16,14,05,27.80
2008,08,16,14,06,27.80
2008,08,16,14,07,27.80
2008,08,16,14,08,27.80
2008,08,16,14,09,27.80
2008,08,16,14,10,27.80
2008,08,16,14,11,27.90
2008,08,16,14,12,27.90
2008,08,16,14,13,28.00
2008,08,16,14,14,28.10
2008,08,16,14,15,28.00
2008,08,16,14,16,28.00
2008,08,16,14,17,27.80
2008,08,16,14,18,27.70
2008,08,16,14,19,27.70
2008,08,16,14,20,27.60
2008,08,16,14,21,27.60
2008,08,16,14,22,27.40
2008,08,16,14,23,27.40
2008,08,16,14,24,27.30
2008,08,16,14,25,27.20
2008,08,16,14,26,27.20
2008,08,16,14,27,27.20
2008,08,16,14,28,27.20
2008,08,16,14,29,27.20
2008,08,16,14,30,27.10
2008,08,16,14,31,27.10
2008,08,16,14,32,27.10
2008,08,16,14,33,27.20
2008,08,16,14,34,27.30
2008,08,16,14,35,27.30
2008,08,16,14,36,27.20
2008,08,16,14,37,27.20
2008,08,16,14,38,27.20
2008,08,16,14,39,27.30
2008,08,16,14,40,27.30
2008,08,16,14,41,27.30
2008,08,16,14,42,27.30
2008,08,16,14,43,27.40
2008,08,16,14,44,27.30
2008,08,16,14,45,27.30
2008,08,16,14,46,27.30
2008,08,16,14,47,27.40
2008,08,16,14,48,27.60
2008,08,16,14,49,27.70
2008,08,16,14,50,27.80
2008,08,16,14,51,27.90
2008,08,16,14,52,27.90
2008,08,16,14,53,27.90
2008,08,16,14,54,28.00
2008,08,16,14,55,28.00
2008,08,16,14,56,28.00
2008,08,16,14,57,28.10
2008,08,16,14,58,28.20
2008,08,16,14,59,28.20
2008,08,16,15,00,28.20
2008,08,16,15,01,28.30
2008,08,16,15,02,28.30
2008,08,16,15,03,28.30
2008,08,16,15,04,28.40
2008,08,16,15,05,28.40
2008,08,16,15,06,28.40
2008,08,16,15,07,28.30
2008,08,16,15,08,28.20
2008,08,16,15,09,28.20
2008,08,16,15,10,28.20
2008,08,16,15,11,28.10
2008,08,16,15,12,28.10
2008,08,16,15,13,28.10
2008,08,16,15,14,28.10
2008,08,16,15,15,28.20
2008,08,16,15,16,28.20
2008,08,16,15,17,28.20
2008,08,16,15,18,28.20
2008,08,16,15,19,28.20
2008,08,16,15,20,28.20
2008,08,16,15,21,28.10
2008,08,16,15,22,28.10
2008,08,16,15,23,28.10
2008,08,16,15,24,28.10
2008,08,16,15,25,28.10
2008,08,16,15,26,28.10
2008,08,16,15,27,28.20
2008,08,16,15,28,28.20
2008,08,16,15,29,28.20
2008,08,16,15,30,28.30
2008,08,16,15,31,28.30
2008,08,16,15,32,28.30
2008,08,16,15,33,28.30
2008,08,16,15,34,28.40
2008,08,16,15,35,28.40
2008,08,16,15,36,28.50
2008,08,16,15,37,28.60
2008,08,16,15,38,28.70
2008,08,16,15,39,28.70
2008,08,16,15,40,28.80
2008,08,16,15,41,28.80
2008,08,16,15,42,28.70
2008,08,16,15,43,28.70
2008,08,16,15,44,28.70
2008,08,16,15,45,28.70
2008,08,16,15,46,28.70
2008,08,16,15,47,28.70
2008,08,16,15,48,28.70
2008,08,16,15,49,28.70
2008,08,16,15,50,28.80
2008,08,16,15,51,28.80
2008,08,16,15,52,28.80
2008,08,16,15,53,28.80
2008,08,16,15,54,28.80
2008,08,16,15,55,28.80
2008,08,16,15,56,28.90
2008,08,16,15,57,28.90
2008,08,16,15,58,28.90
2008,08,16,15,59,28.90
2008,08,16,16,00,28.90
2008,08,16,16,01,29.00
2008,08,16,16,02,29.10
2008,08,16,16,03,29.10
2008,08,16,16,04,29.10
2008,08,16,16,05,29.20
2008,08,16,16,06,29.20
2008,08,16,16,07,29.20
2008,08,16,16,08,29.20
2008,08,16,16,09,29.30
2008,08,16,16,10,29.30
2008,08,16,16,11,29.30
2008,08,16,16,12,29.30
2008,08,16,16,13,29.40
2008,08,16,16,14,29.40
2008,08,16,16,15,29.40
2008,08,16,16,16,29.50
2008,08,16,16,17,29.50
2008,08,16,16,18,29.40
2008,08,16,16,19,29.40
2008,08,16,16,20,29.40
2008,08,16,16,21,29.30
2008,08,16,16,22,29.40
2008,08,16,16,23,29.40
2008,08,16,16,24,29.40
2008,08,16,16,25,29.40
2008,08,16,16,26,29.40
2008,08,16,16,27,29.50
2008,08,16,16,28,29.50
2008,08,16,16,29,29.50
2008,08,16,16,30,29.50
2008,08,16,16,31,29.50
2008,08,16,16,32,29.50
2008,08,16,16,33,29.60
2008,08,16,16,34,29.60
2008,08,16,16,35,29.70
2008,08,16,16,36,29.70
2008,08,16,16,37,29.80
2008,08,16,16,38,29.80
2008,08,16,16,39,29.80
2008,08,16,16,40,29.80
2008,08,16,16,41,29.80
2008,08,16,16,42,29.90
2008,08,16,16,43,29.90
2008,08,16,16,44,29.80
2008,08,16,16,45,29.80
2008,08,16,16,46,29.80
2008,08,16,16,47,29.80
2008,08,16,16,48,29.80
2008,08,16,16,49,29.70
2008,08,16,16,50,29.80
2008,08,16,16,51,29.80
2008,08,16,16,52,29.90
2008,08,16,16,53,30.00
2008,08,16,16,54,30.10
2008,08,16,16,55,30.10
2008,08,16,16,56,30.10
2008,08,16,16,57,30.20
2008,08,16,16,58,30.20
2008,08,16,16,59,30.30
2008,08,16,17,00,30.30
2008,08,16,17,01,30.40
2008,08,16,17,02,30.40
2008,08,16,17,03,30.40
2008,08,16,17,04,30.40
2008,08,16,17,05,30.50
2008,08,16,17,06,30.60
2008,08,16,17,07,30.50
2008,08,16,17,08,30.40
2008,08,16,17,09,30.40
2008,08,16,17,10,30.50
2008,08,16,17,11,30.60
2008,08,16,17,12,30.60
2008,08,16,17,13,30.60
2008,08,16,17,14,30.70
2008,08,16,17,15,30.70
2008,08,16,17,16,30.70
2008,08,16,17,17,30.70
2008,08,16,17,18,30.80
2008,08,16,17,19,30.80